Date String (YYYY-MM-DD hh:mm:ss) UTC,Instrument flags,absolute air pressure of the measurement (hPa),sample flow rate (lpm),inlet stack bypass flow (lpm),air temperature of the measurement (°C),ambient temperature measured by the external sensor (°C),aerosol sample conditioner tube jacket temperature (°C),OPC LED temperature (°C),internal box temperature (°C),relative humidity of the measurement (%),span deviation,mass concentration of particles derived from Lorenz-Mie calculation of OPC scattering (μg/m³),mass concentration of particles derived from Lorenz-Mie calculation of OPC scattering (μg/m³),mass concentration of particles derived from Lorenz-Mie calculation of OPC scattering (μg/m³)
DateTimeUTC,F1_M11,P_M11,Q1_M11,Q2_M11,T1_M11,T2_M11,T3_M11,T4_M11,T5_M11,U1_M11,ZSPAN_M11,X0_M11,X2_M11,X1_M11
2023-06-25 22:00:00,SystemResetWarning,0832.6,4.99,000.00,029.2,025.2,000.0,037.7,030.5,31.6,0000.0,0013.61,0004.35,0003.41
2023-06-25 22:01:00,SystemResetWarning,0832.6,5.00,000.00,029.1,025.7,000.0,037.7,030.6,31.6,0000.0,0013.33,0004.34,0003.43
2023-06-25 22:02:00,SystemResetWarning,0832.6,5.01,000.00,029.2,026.2,000.0,037.7,030.7,31.9,0000.0,0013.43,0004.36,0003.44
2023-06-25 22:03:00,SystemResetWarning,0832.6,5.01,000.00,029.2,026.7,000.0,037.7,030.8,31.7,0000.0,0014.44,0004.41,0003.45
2023-06-25 22:04:00,SystemResetWarning,0832.6,4.99,000.00,029.2,027.1,000.0,037.7,030.9,30.9,0000.0,0014.95,0004.41,0003.47
2023-06-25 22:05:00,SystemResetWarning,0832.7,4.99,000.00,029.3,027.4,000.0,037.7,030.9,30.9,0000.0,0015.00,0004.37,0003.46
2023-06-25 22:06:00,SystemResetWarning,0832.6,5.01,000.00,029.3,027.6,000.0,037.7,031.0,30.9,0000.0,0014.26,0004.40,0003.46
2023-06-25 22:07:00,SystemResetWarning,0832.7,5.00,000.00,029.3,027.9,000.0,037.8,031.1,30.8,0000.0,0014.07,0004.39,0003.46
2023-06-25 22:08:00,SystemResetWarning,0832.6,5.01,000.00,029.4,027.8,000.0,037.8,031.2,29.9,0000.0,0014.03,0004.36,0003.47
2023-06-25 22:09:00,SystemResetWarning,0832.6,4.98,000.00,029.4,026.0,000.0,037.7,031.1,30.2,0000.0,0013.80,0004.29,0003.47
2023-06-25 22:10:00,SystemResetWarning,0832.6,5.02,000.00,029.4,024.5,000.0,037.7,031.0,30.4,0000.0,0013.29,0004.24,0003.46
2023-06-25 22:11:00,SystemResetWarning,0832.6,5.01,000.00,029.3,024.4,000.0,037.6,030.9,30.2,0000.0,0014.56,0004.27,0003.47
2023-06-25 22:12:00,SystemResetWarning,0832.6,4.99,000.00,029.2,024.8,000.0,037.6,030.6,31.1,0000.0,0015.58,0004.30,0003.47
2023-06-25 22:13:00,SystemResetWarning,0832.6,5.00,000.00,029.2,025.3,000.0,037.6,030.5,31.1,0000.0,0015.80,0004.31,0003.46
2023-06-25 22:14:00,SystemResetWarning,0832.6,5.00,000.00,029.2,025.9,000.0,037.6,030.6,31.7,0000.0,0014.96,0004.31,0003.46
2023-06-25 22:15:00,SystemResetWarning,0832.6,5.00,000.00,029.2,026.4,000.0,037.7,030.7,32.4,0000.0,0014.65,0004.32,0003.46
2023-06-25 22:16:00,SystemResetWarning,0832.6,5.00,000.00,029.2,026.8,000.0,037.7,030.8,30.4,0000.0,0014.43,0004.33,0003.46
2023-06-25 22:17:00,SystemResetWarning,0832.7,4.99,000.00,029.2,027.2,000.0,037.7,030.9,30.1,0000.0,0014.38,0004.31,0003.47
2023-06-25 22:18:00,SystemResetWarning,0832.6,4.99,000.00,029.3,027.5,000.0,037.7,031.0,31.1,0000.0,0014.78,0004.35,0003.48
2023-06-25 22:19:00,SystemResetWarning,0832.6,5.01,000.00,029.3,027.7,000.0,037.7,031.0,30.4,0000.0,0014.74,0004.36,0003.50
2023-06-25 22:20:00,SystemResetWarning,0832.6,5.00,000.00,029.4,028.0,000.0,037.7,031.1,31.0,0000.0,0014.39,0004.41,0003.51
2023-06-25 22:21:00,SystemResetWarning,0832.6,4.99,000.00,029.4,028.1,000.0,037.8,031.2,31.8,0000.0,0014.66,0004.50,0003.54
2023-06-25 22:22:00,SystemResetWarning,0832.6,4.99,000.00,029.4,026.9,000.0,037.8,031.2,30.7,0000.0,0013.08,0004.48,0003.56
2023-06-25 22:23:00,SystemResetWarning,0832.6,5.00,000.00,029.4,025.5,000.0,037.7,031.1,31.0,0000.0,0011.38,0004.51,0003.59
2023-06-25 22:24:00,SystemResetWarning,0832.6,5.01,000.00,029.4,025.5,000.0,037.7,031.0,31.0,0000.0,0011.64,0004.54,0003.61
2023-06-25 22:25:00,SystemResetWarning,0832.7,5.01,000.00,029.3,025.8,000.0,037.7,030.7,31.7,0000.0,0012.75,0004.53,0003.61
2023-06-25 22:26:00,SystemResetWarning,0832.6,5.01,000.00,029.3,026.2,000.0,037.7,030.8,31.1,0000.0,0013.54,0004.54,0003.63
2023-06-25 22:27:00,SystemResetWarning,0832.6,5.00,000.00,029.3,026.7,000.0,037.7,030.9,30.5,0000.0,0013.35,0004.58,0003.65
2023-06-25 22:28:00,SystemResetWarning,0832.6,5.00,000.00,029.3,027.1,000.0,037.8,031.0,30.4,0000.0,0013.51,0004.66,0003.66
2023-06-25 22:29:00,SystemResetWarning,0832.5,5.01,000.00,029.4,027.4,000.0,037.8,031.0,31.1,0000.0,0014.30,0004.72,0003.66
2023-06-25 22:30:00,SystemResetWarning,0832.5,5.00,000.00,029.4,027.7,000.0,037.8,031.1,30.4,0000.0,0014.49,0004.77,0003.66
2023-06-25 22:31:00,SystemResetWarning,0832.5,4.99,000.00,029.5,027.6,000.0,037.8,031.2,30.1,0000.0,0015.09,0004.76,0003.67
2023-06-25 22:32:00,SystemResetWarning,0832.5,5.00,000.00,029.5,025.9,000.0,037.8,031.2,30.2,0000.0,0014.91,0004.70,0003.67
2023-06-25 22:33:00,SystemResetWarning,0832.6,5.00,000.00,029.4,024.5,000.0,037.7,031.0,30.9,0000.0,0014.92,0004.72,0003.67
2023-06-25 22:34:00,SystemResetWarning,0832.5,5.01,000.00,029.4,024.5,000.0,037.7,030.9,30.7,0000.0,0015.04,0004.69,0003.66
2023-06-25 22:35:00,SystemResetWarning,0832.5,5.01,000.00,029.3,024.9,000.0,037.7,030.6,30.5,0000.0,0014.56,0004.69,0003.66
2023-06-25 22:36:00,SystemResetWarning,0832.6,4.99,000.00,029.2,025.4,000.0,037.7,030.6,31.0,0000.0,0013.40,0004.70,0003.67
2023-06-25 22:37:00,SystemResetWarning,0832.5,5.01,000.00,029.2,025.9,000.0,037.7,030.7,30.7,0000.0,0012.71,0004.73,0003.68
2023-06-25 22:38:00,SystemResetWarning,0832.5,5.01,000.00,029.2,026.4,000.0,037.7,030.8,31.5,0000.0,0012.76,0004.71,0003.67
2023-06-25 22:39:00,SystemResetWarning,0832.5,4.99,000.00,029.2,026.9,000.0,037.7,030.9,31.8,0000.0,0012.81,0004.69,0003.68
2023-06-25 22:40:00,SystemResetWarning,0832.5,4.99,000.00,029.3,027.2,000.0,037.7,030.9,30.8,0000.0,0011.79,0004.64,0003.68
2023-06-25 22:41:00,SystemResetWarning,0832.5,5.02,000.00,029.3,027.6,000.0,037.8,031.0,31.1,0000.0,0011.31,0004.60,0003.69
2023-06-25 22:42:00,SystemResetWarning,0832.5,4.99,000.00,029.4,027.8,000.0,037.8,031.1,30.4,0000.0,0010.90,0004.64,0003.69
2023-06-25 22:43:00,SystemResetWarning,0832.5,5.00,000.00,029.4,028.0,000.0,037.8,031.2,30.2,0000.0,0011.04,0004.65,0003.70
2023-06-25 22:44:00,SystemResetWarning,0832.5,4.99,000.00,029.5,027.7,000.0,037.8,031.2,30.5,0000.0,0011.78,0004.64,0003.70
2023-06-25 22:45:00,SystemResetWarning,0832.5,5.00,000.00,029.4,025.6,000.0,037.8,031.1,30.7,0000.0,0011.86,0004.66,0003.71
2023-06-25 22:46:00,SystemResetWarning,0832.4,5.01,000.00,029.4,024.5,000.0,037.7,031.0,31.3,0000.0,0011.57,0004.63,0003.70
2023-06-25 22:47:00,SystemResetWarning,0832.4,5.02,000.00,029.3,024.6,000.0,037.7,030.8,30.8,0000.0,0011.13,0004.63,0003.69
2023-06-25 22:48:00,SystemResetWarning,0832.4,5.00,000.00,029.2,025.0,000.0,037.7,030.6,30.7,0000.0,0011.04,0004.67,0003.69
2023-06-25 22:49:00,SystemResetWarning,0832.4,5.00,000.00,029.2,025.6,000.0,037.7,030.6,30.8,0000.0,0011.88,0004.68,0003.70
2023-06-25 22:50:00,SystemResetWarning,0832.5,5.00,000.00,029.2,026.1,000.0,037.7,030.7,31.0,0000.0,0011.84,0004.64,0003.69
2023-06-25 22:51:00,SystemResetWarning,0832.4,4.99,000.00,029.2,026.6,000.0,037.7,030.8,30.8,0000.0,0012.77,0004.66,0003.70
2023-06-25 22:52:00,SystemResetWarning,0832.4,4.99,000.00,029.3,027.0,000.0,037.7,030.9,30.7,0000.0,0013.15,0004.69,0003.71
2023-06-25 22:53:00,SystemResetWarning,0832.5,5.02,000.00,029.3,027.4,000.0,037.8,031.0,31.7,0000.0,0013.82,0004.66,0003.71
2023-06-25 22:54:00,SystemResetWarning,0832.5,5.01,000.00,029.3,027.7,000.0,037.8,031.1,32.1,0000.0,0014.17,0004.65,0003.71
2023-06-25 22:55:00,SystemResetWarning,0832.5,4.99,000.00,029.4,027.9,000.0,037.8,031.1,31.3,0000.0,0014.07,0004.71,0003.72
2023-06-25 22:56:00,SystemResetWarning,0832.4,5.00,000.00,029.4,027.1,000.0,037.8,031.1,30.5,0000.0,0014.67,0004.72,0003.71
2023-06-25 22:57:00,SystemResetWarning,0832.4,5.00,000.00,029.4,025.2,000.0,037.7,031.0,30.4,0000.0,0014.78,0004.71,0003.72
2023-06-25 22:58:00,SystemResetWarning,0832.4,5.01,000.00,029.4,024.5,000.0,037.7,031.0,30.5,0000.0,0015.83,0004.72,0003.73
2023-06-25 22:59:00,SystemResetWarning,0832.3,5.01,000.00,029.3,024.7,000.0,037.6,030.7,30.8,0000.0,0015.89,0004.67,0003.73
